Location: Unspecified
(40.7945°N, 111.1337°W)
Time: 16:58:33
(UTC-06:00)

Cosmos 1674 - Pass Details

Date: 26 March 2019
Orbit: 497 x 518 km, 82.5° (Epoch: 23 April)

Event Time Altitude Azimuth Distance (km) Brightness Sun altitude
Rises 20:56:14 0° 354° (N) 2,610 6.6 -14.5°
Reaches altitude 10° 20:58:22 10° 356° (N) 1,725 5.6 -14.8°
Maximum altitude 21:02:08 72° 81° (E) 537 2.5 -15.5°
Enters shadow 21:05:17 14° 166° (SSE) 1,471 4.7 -16.1°
